Sigfox identifier Datetime Temperature Humidity SNR
003C4047 2019-02-20 13:42:29 20.8 25 23.3
003C4047 2019-02-20 13:11:30 20.8 25 23.3
003C4047 2019-02-20 12:40:27 20.8 26 22.5
003C4047 2019-02-20 11:38:15 20.8 26 22.4
003C4047 2019-02-20 11:07:10 20.8 27 21.4
003C4047 2019-02-20 10:36:08 20.8 27 21.4
003C4047 2019-02-20 10:05:04 20.7 27 21.4
003C4047 2019-02-20 09:34:00 20.7 27 21.4
003C4047 2019-02-20 09:02:56 20.7 27 20
003C4047 2019-02-20 08:31:52 20.7 27 17.8
003C4047 2019-02-20 08:00:48 20.8 27 17.9
003C4047 2019-02-20 07:29:43 20.8 27 18
003C4047 2019-02-20 06:58:40 20.8 27 18
003C4047 2019-02-20 06:27:38 20.8 27 17.9
003C4047 2019-02-20 05:56:30 20.8 27 17.9
003C4047 2019-02-20 05:25:26 20.8 27 18
003C4047 2019-02-20 04:54:21 20.8 27 18
003C4047 2019-02-20 04:23:15 20.8 27 18.2
003C4047 2019-02-20 03:52:10 21.1 27 18.2
003C4047 2019-02-20 03:51:01 20.8 27 18.2
003C4047 2019-02-20 03:19:53 20.9 27 20.2
003C4047 2019-02-20 02:48:49 20.8 27 20.2
003C4047 2019-02-20 02:17:44 20.8 27 20.2
003C4047 2019-02-20 01:46:35 20.9 27 20.1
003C4047 2019-02-20 01:15:32 20.9 27 20.1
003C4047 2019-02-20 00:44:26 20.9 27 20.1
003C4047 2019-02-20 00:13:21 20.9 27 20.2
003C4047 2019-02-19 23:42:19 20.9 27 20.3
003C4047 2019-02-19 23:11:15 20.9 27 20.4
003C4047 2019-02-19 22:40:11 20.9 27 21.7
003C4047 2019-02-19 22:09:06 20.9 27 21.7
003C4047 2019-02-19 21:38:03 20.9 27 20.4
003C4047 2019-02-19 21:06:59 21 27 20.5
003C4047 2019-02-19 20:35:56 21 27 20.5
003C4047 2019-02-19 20:04:56 21 27 21.8
003C4047 2019-02-19 19:33:53 21 27 21.9
003C4047 2019-02-19 19:02:50 21 27 22.1
003C4047 2019-02-19 18:31:48 21 27 22.3
003C4047 2019-02-19 18:00:48 21 27 22.4
003C4047 2019-02-19 17:29:43 21 27 22.5
003C4047 2019-02-19 16:27:38 21 27 22.5
003C4047 2019-02-19 15:56:38 21 27 22.7
003C4047 2019-02-19 15:25:37 21 26 22.6
003C4047 2019-02-19 14:54:33 21 26 22.7
003C4047 2019-02-19 14:23:35 21 26 22.7
003C4047 2019-02-19 13:52:27 21 26 21.7
003C4047 2019-02-19 13:21:24 20.9 26 21.7
003C4047 2019-02-19 12:50:20 20.9 26 21.8
003C4047 2019-02-19 12:19:18 20.9 26 21.8
003C4047 2019-02-19 11:48:17 20.9 26 21.9
003C4047 2019-02-19 11:17:11 20.9 26 22.1
003C4047 2019-02-19 10:46:09 20.9 25 22.1
003C4047 2019-02-19 10:15:06 20.9 25 22
003C4047 2019-02-19 09:44:05 20.8 25 22
003C4047 2019-02-19 09:13:04 20.8 25 21
003C4047 2019-02-19 08:42:02 20.8 25 21.1
003C4047 2019-02-19 08:10:58 20.8 24 21.2
003C4047 2019-02-19 07:39:56 20.8 24 21.1
003C4047 2019-02-19 07:08:53 20.9 24 21.1
003C4047 2019-02-19 06:37:52 20.8 24 19.6
003C4047 2019-02-19 06:06:49 20.8 24 19.4
003C4047 2019-02-19 05:35:46 20.8 24 19.1
003C4047 2019-02-19 05:04:43 20.8 24 18.8
003C4047 2019-02-19 04:33:40 20.8 24 18.5
003C4047 2019-02-19 04:02:37 20.9 24 18.3
003C4047 2019-02-19 03:31:35 20.8 23 20.3
003C4047 2019-02-19 03:00:33 20.8 23 20
003C4047 2019-02-19 02:29:30 21.1 23 20.2
003C4047 2019-02-19 02:28:18 20.8 23 20.1
003C4047 2019-02-19 01:57:16 20.9 23 20
003C4047 2019-02-19 01:26:14 20.8 23 20
003C4047 2019-02-19 00:55:14 20.8 23 20.5
003C4047 2019-02-19 00:24:12 20.8 23 20.6
003C4047 2019-02-18 23:53:14 20.8 23 20.7
003C4047 2019-02-18 23:22:08 20.8 23 21.8
003C4047 2019-02-18 22:51:04 20.9 23 21.8
003C4047 2019-02-18 22:20:00 20.8 22 22
003C4047 2019-02-18 21:48:56 20.9 22 22.2
003C4047 2019-02-18 21:17:53 20.9 22 22.2
003C4047 2019-02-18 20:46:49 20.8 22 22.3
003C4047 2019-02-18 20:15:46 20.9 22 22.5
003C4047 2019-02-18 19:44:42 20.9 22 22.7
003C4047 2019-02-18 19:13:37 20.9 22 22.7
003C4047 2019-02-18 18:42:32 20.9 22 22.8
003C4047 2019-02-18 18:11:29 20.9 22 23.1
003C4047 2019-02-18 17:40:28 20.9 22 23.3
003C4047 2019-02-18 17:09:26 20.9 22 23.4
003C4047 2019-02-18 16:38:21 21 22 23.5
003C4047 2019-02-18 16:07:17 21 21 23.6
003C4047 2019-02-18 15:36:19 21 21 23.8
003C4047 2019-02-18 15:05:14 21 21 23.8
003C4047 2019-02-18 14:34:12 21 21 24.4
003C4047 2019-02-18 14:03:09 21.1 20 24.6
003C4047 2019-02-18 13:32:07 21.1 20 24.7
003C4047 2019-02-18 13:01:04 21.2 20 24.8
003C4047 2019-02-18 12:30:02 21.2 20 25
003C4047 2019-02-18 11:59:00 21.2 20 24.9
003C4047 2019-02-18 11:27:56 21.2 20 25.4
003C4047 2019-02-18 10:56:54 21.1 20 25.5
003C4047 2019-02-18 10:25:49 21.1 20 25.1
003C4047 2019-02-18 09:54:46 21 20 25.2
003C4047 2019-02-18 09:23:43 20.9 20 25.2
003C4047 2019-02-18 08:52:40 20.9 20 25.2
003C4047 2019-02-18 08:21:36 20.8 20 25.4
003C4047 2019-02-18 07:50:33 20.8 20 25.4
003C4047 2019-02-18 07:19:29 20.7 19 25.4
003C4047 2019-02-18 06:48:26 20.7 19 25.3
003C4047 2019-02-18 06:17:22 20.7 19 25.4
003C4047 2019-02-18 05:46:17 20.7 19 25.4
003C4047 2019-02-18 05:15:12 20.7 20 25.3
003C4047 2019-02-18 04:44:07 20.7 20 25.4
003C4047 2019-02-18 04:13:04 20.7 20 25.4
003C4047 2019-02-18 03:41:59 20.7 20 25.4
003C4047 2019-02-18 03:10:54 20.7 20 25.4
003C4047 2019-02-18 02:39:48 20.7 20 25.5
003C4047 2019-02-18 02:08:42 20.8 20 25.1
003C4047 2019-02-18 01:37:37 20.8 20 24.6
003C4047 2019-02-18 01:06:31 21 20 24.6
003C4047 2019-02-18 01:05:19 20.8 20 24.6
003C4047 2019-02-18 00:34:13 20.8 20 24.6
003C4047 2019-02-18 00:03:07 20.8 20 24.6
003C4047 2019-02-17 23:32:00 20.8 20 24.7
003C4047 2019-02-17 23:00:54 20.8 20 24.2
003C4047 2019-02-17 22:29:49 20.8 21 24.2
003C4047 2019-02-17 21:58:42 20.8 21 24.2
003C4047 2019-02-17 21:27:37 20.8 21 24.1
003C4047 2019-02-17 20:56:33 20.8 21 24.1
003C4047 2019-02-17 20:25:28 20.9 21 24.2
003C4047 2019-02-17 19:54:23 20.8 21 24.1
003C4047 2019-02-17 19:23:18 20.9 21 24.1
003C4047 2019-02-17 18:52:14 20.9 21 24.1
003C4047 2019-02-17 18:21:10 20.9 21 24.2
003C4047 2019-02-17 17:50:06 20.9 21 24.2
003C4047 2019-02-17 17:19:01 20.9 21 24.2
003C4047 2019-02-17 16:47:56 20.9 21 24.3
003C4047 2019-02-17 16:16:51 20.9 21 24.2
003C4047 2019-02-17 15:45:48 20.9 21 24.2
003C4047 2019-02-17 15:14:44 20.9 22 24.3
003C4047 2019-02-17 14:43:40 20.9 22 24.3
003C4047 2019-02-17 14:12:36 21 22 24.4
003C4047 2019-02-17 13:41:32 21 22 24.4
003C4047 2019-02-17 13:10:25 20.9 22 24.4
003C4047 2019-02-17 12:39:18 20.9 22 24.9
003C4047 2019-02-17 12:08:12 20.9 22 25
003C4047 2019-02-17 11:37:04 20.9 22 24.9
003C4047 2019-02-17 11:05:57 20.9 22 25
003C4047 2019-02-17 10:34:48 20.9 22 24.9
003C4047 2019-02-17 10:03:40 20.9 22 24.8
003C4047 2019-02-17 09:32:33 20.9 22 24.9
003C4047 2019-02-17 09:01:28 20.9 23 24.9
003C4047 2019-02-17 08:30:24 20.9 23 25.3
003C4047 2019-02-17 07:59:21 20.9 23 25.3
003C4047 2019-02-17 07:28:18 20.9 23 25.3
003C4047 2019-02-17 06:57:14 20.9 23 25.3
003C4047 2019-02-17 06:26:09 20.9 23 25.4
003C4047 2019-02-17 05:55:03 21 23 25.4
003C4047 2019-02-17 05:23:58 21 24 25.3
003C4047 2019-02-17 04:52:53 21 24 25.3
003C4047 2019-02-17 04:21:49 21 24 25.3
003C4047 2019-02-17 03:50:44 21 24 25.3
003C4047 2019-02-17 03:19:39 21 24 25.3
003C4047 2019-02-17 02:48:35 21 24 25.4
003C4047 2019-02-17 02:17:30 20.9 25 25.3
003C4047 2019-02-17 01:46:25 21 25 25.3
003C4047 2019-02-17 01:15:21 21 25 25.1
003C4047 2019-02-17 00:44:15 21 25 25.1
003C4047 2019-02-17 00:13:12 21 25 25.1
003C4047 2019-02-16 23:42:06 21.2 25 24.6
003C4047 2019-02-16 23:40:54 21 25 24.6
003C4047 2019-02-16 23:09:49 21 25 24.7
003C4047 2019-02-16 22:38:45 21 25 24.7
003C4047 2019-02-16 22:07:41 21 25 24.7
003C4047 2019-02-16 21:36:37 21 25 24.8
003C4047 2019-02-16 21:05:35 21 25 24.7
003C4047 2019-02-16 20:34:32 21 25 24.7
003C4047 2019-02-16 20:03:28 21 26 24.1
003C4047 2019-02-16 19:32:24 21 25 24.2
003C4047 2019-02-16 19:01:20 21 25 24.2
003C4047 2019-02-16 18:30:16 21 25 24.1
003C4047 2019-02-16 17:59:11 21.1 25 24
003C4047 2019-02-16 17:28:06 21.1 25 24.1
003C4047 2019-02-16 16:57:01 21.2 26 24.1
003C4047 2019-02-16 16:25:55 21.1 26 24
003C4047 2019-02-16 15:54:49 21.1 26 24.5
003C4047 2019-02-16 15:23:43 21.1 26 24.5
003C4047 2019-02-16 14:52:37 21.1 26 24.6
003C4047 2019-02-16 14:21:32 21.1 25 24.6
003C4047 2019-02-16 13:50:24 21.1 25 24.5
003C4047 2019-02-16 13:19:16 21.1 25 24.5
003C4047 2019-02-16 12:48:09 21 26 24.5
003C4047 2019-02-16 12:17:03 21 26 24.6
003C4047 2019-02-16 11:45:55 21 26 24.6
003C4047 2019-02-16 11:14:48 21 26 24.6
003C4047 2019-02-16 10:43:41 21 26 24.5
003C4047 2019-02-16 10:12:34 21 26 24.5
003C4047 2019-02-16 09:41:29 21 26 24.5
003C4047 2019-02-16 09:10:24 21 26 24.4
003C4047 2019-02-16 08:39:20 21 26 24.5
003C4047 2019-02-16 08:08:15 21 26 24.4
003C4047 2019-02-16 07:37:10 21 26 24.5
003C4047 2019-02-16 07:06:04 21 26 24.5
003C4047 2019-02-16 06:34:59 21 26 24.5
003C4047 2019-02-16 06:03:53 21 26 24.5
003C4047 2019-02-16 05:32:47 21 26 24.5
003C4047 2019-02-16 05:01:42 21 26 24.5
003C4047 2019-02-16 04:30:36 21 26 24.3
003C4047 2019-02-16 03:59:31 21 26 24.3
003C4047 2019-02-16 03:28:24 21 26 24.2
003C4047 2019-02-16 02:57:20 21.1 26 23.7
003C4047 2019-02-16 02:26:15 21.1 26 23.6
003C4047 2019-02-16 01:55:09 21.1 26 23.5
003C4047 2019-02-16 01:24:04 21.1 26 23.4
003C4047 2019-02-16 00:52:59 21.1 26 23.4
003C4047 2019-02-16 00:21:52 21.1 26 23.5
003C4047 2019-02-15 23:50:47 21.2 26 23.5
003C4047 2019-02-15 23:19:40 21.2 26 23.5
003C4047 2019-02-15 22:48:36 21.2 26 23.6
003C4047 2019-02-15 22:17:32 21.5 25 23.5
003C4047 2019-02-15 22:16:19 21.3 26 23.6
003C4047 2019-02-15 21:45:14 21.3 26 23.5
003C4047 2019-02-15 21:14:09 21.4 25 23.4
003C4047 2019-02-15 20:43:04 21.4 25 23.4
003C4047 2019-02-15 20:11:59 21.5 25 23.4
003C4047 2019-02-15 19:40:53 21.5 25 23.5
003C4047 2019-02-15 19:09:48 21.6 25 23.5
003C4047 2019-02-15 18:38:44 21.5 25 23.4
003C4047 2019-02-15 18:07:40 21.6 25 23.3
003C4047 2019-02-15 17:36:37 21.6 25 23.3
003C4047 2019-02-15 17:05:33 21.5 25 23.4
003C4047 2019-02-15 16:34:28 21.5 25 23.5
003C4047 2019-02-15 16:03:23 21.5 25 23.7
003C4047 2019-02-15 15:32:17 21.5 25 23.8
003C4047 2019-02-15 15:01:13 21.5 25 24.3
003C4047 2019-02-15 14:30:08 21.5 25 24.3
003C4047 2019-02-15 13:59:04 21.5 25 24.5
003C4047 2019-02-15 13:28:00 21.4 25 24.5
003C4047 2019-02-15 12:56:55 21.4 25 24.6
003C4047 2019-02-15 12:25:51 21.4 25 24.6
003C4047 2019-02-15 11:54:49 21.4 25 24.7
003C4047 2019-02-15 11:23:46 21.4 25 24.7
003C4047 2019-02-15 10:52:43 21.3 25 24.7
003C4047 2019-02-15 10:21:38 21.3 25 24.6
003C4047 2019-02-15 09:50:35 21.3 25 24.8
003C4047 2019-02-15 09:19:33 21.3 25 24.8
003C4047 2019-02-15 08:48:29 21.2 25 24.9
003C4047 2019-02-15 08:17:26 21.2 26 24.9
003C4047 2019-02-15 07:46:23 21.2 26 24.9
003C4047 2019-02-15 07:15:18 21.2 26 24.8
003C4047 2019-02-15 06:44:15 21.2 26 24.7
003C4047 2019-02-15 06:13:11 21.2 26 24.7
003C4047 2019-02-15 05:42:06 21.2 26 24.8
003C4047 2019-02-15 05:11:01 21.2 26 24.9
003C4047 2019-02-15 04:39:56 21.2 26 24.8
003C4047 2019-02-15 04:08:52 21.2 26 24.7
003C4047 2019-02-15 03:37:48 21.2 26 24.7
003C4047 2019-02-15 03:06:44 21.2 26 24.5
003C4047 2019-02-15 02:35:41 21.2 26 24.4
003C4047 2019-02-15 02:04:36 21.2 26 23.8
003C4047 2019-02-15 01:33:32 21.2 26 23.7
003C4047 2019-02-15 01:02:26 21.3 26 23.5
003C4047 2019-02-15 00:31:22 21.3 25 24.1
003C4047 2019-02-15 00:00:17 21.3 25 23.9
003C4047 2019-02-14 23:29:12 21.3 25 23.8
003C4047 2019-02-14 22:58:07 21.3 25 23.6
003C4047 2019-02-14 22:27:01 21.3 25 23.4
003C4047 2019-02-14 21:55:55 21.4 25 23.2
003C4047 2019-02-14 21:24:49 21.4 25 23.1
003C4047 2019-02-14 20:53:44 21.7 24 22.7
003C4047 2019-02-14 20:52:32 21.5 25 22.4
003C4047 2019-02-14 20:21:27 21.6 25 22
003C4047 2019-02-14 19:50:22 21.6 25 21.9
003C4047 2019-02-14 19:19:15 21.7 24 21.8
003C4047 2019-02-14 18:48:07 21.7 24 21.8
003C4047 2019-02-14 18:16:59 21.7 25 21.5
003C4047 2019-02-14 17:45:52 21.7 24 21.3
003C4047 2019-02-14 17:14:44 21.7 24 21.1
003C4047 2019-02-14 16:43:37 21.8 25 20.7
003C4047 2019-02-14 16:12:30 21.7 24 20.8
003C4047 2019-02-14 15:41:25 21.7 24 20.9
003C4047 2019-02-14 15:10:20 21.7 24 20.5
003C4047 2019-02-14 14:39:17 21.6 24 20.5
003C4047 2019-02-14 14:08:11 21.6 24 20.5
003C4047 2019-02-14 13:37:05 21.6 23 20.4
003C4047 2019-02-14 13:06:01 21.5 23 20.3
003C4047 2019-02-14 12:34:53 21.4 23 20.4
003C4047 2019-02-14 12:03:48 21.4 23 18.4
003C4047 2019-02-14 11:32:42 21.3 23 18.5
003C4047 2019-02-14 11:01:36 21.2 24 18.4
003C4047 2019-02-14 10:30:29 21.1 24 18.5
003C4047 2019-02-14 09:59:23 20.9 23 18.5
003C4047 2019-02-14 09:28:17 21 23 18.6
003C4047 2019-02-14 08:57:11 20.9 23 18.6
003C4047 2019-02-14 08:26:03 20.9 24 18.7
003C4047 2019-02-14 07:54:58 20.9 24 18.6
003C4047 2019-02-14 07:23:53 20.9 25 18.8
003C4047 2019-02-14 06:52:49 20.9 26 18.7
003C4047 2019-02-14 06:21:45 20.9 26 18.3
003C4047 2019-02-14 05:50:41 20.9 26 18
003C4047 2019-02-14 05:19:38 21 26 17.9
003C4047 2019-02-14 04:48:34 20.9 26 18.3
003C4047 2019-02-14 04:17:30 21 26 18.2
003C4047 2019-02-14 03:46:27 21 26 18.2
003C4047 2019-02-14 03:15:25 21 26 17.8
003C4047 2019-02-14 02:44:22 21 25 17.5
003C4047 2019-02-14 02:13:18 21 25 17.4
003C4047 2019-02-14 01:42:15 21 25 17.4
003C4047 2019-02-14 01:11:11 21 25 17.2
003C4047 2019-02-14 00:40:08 21 25 17.7
003C4047 2019-02-14 00:09:05 21 25 17.7
003C4047 2019-02-13 23:38:03 21.1 25 17.6
003C4047 2019-02-13 23:07:00 21.1 25 18.1
003C4047 2019-02-13 22:35:58 21.1 25 17.8
003C4047 2019-02-13 22:04:55 21.2 25 18.4
003C4047 2019-02-13 21:33:54 21.2 25 18.3
003C4047 2019-02-13 21:02:49 21.3 25 18.3
003C4047 2019-02-13 20:31:45 21.3 25 18.1
003C4047 2019-02-13 20:00:41 21.4 25 18.4
003C4047 2019-02-13 19:29:37 21.7 25 18.4
003C4047 2019-02-13 19:28:23 21.4 25 18.5
003C4047 2019-02-13 18:57:19 21.4 26 18.4
003C4047 2019-02-13 18:26:15 21.5 26 18.4
003C4047 2019-02-13 17:55:10 21.6 27 18.6
003C4047 2019-02-13 17:24:08 21.5 27 18.9
003C4047 2019-02-13 16:53:04 21.5 27 19
003C4047 2019-02-13 16:22:01 21.4 26 18.7
003C4047 2019-02-13 15:50:57 21.3 26 18.8
003C4047 2019-02-13 15:19:54 21.3 26 18.8
003C4047 2019-02-13 14:48:50 21.1 26 19.1
003C4047 2019-02-13 14:17:46 21 25 19.1
003C4047 2019-02-13 13:46:42 21.1 25 19.3
003C4047 2019-02-13 13:15:41 21.2 25 19.3
003C4047 2019-02-13 12:44:35 21.2 25 19.5
003C4047 2019-02-13 12:13:31 21.2 25 19.2
003C4047 2019-02-13 11:42:28 21.2 25 19.2
003C4047 2019-02-13 11:11:24 21.1 25 19.2
003C4047 2019-02-13 10:40:21 20.9 25 18.9
003C4047 2019-02-13 10:09:19 20.9 24 19
003C4047 2019-02-13 09:38:14 20.9 24 18.9
003C4047 2019-02-13 09:07:11 20.9 23 18.9
003C4047 2019-02-13 08:36:10 20.9 22 19.1
003C4047 2019-02-13 08:05:08 20.9 21 19.3
003C4047 2019-02-13 07:34:04 20.9 20 19
003C4047 2019-02-13 07:03:01 20.9 19 19.1
003C4047 2019-02-13 06:31:56 20.9 19 19.1
003C4047 2019-02-13 06:00:51 20.9 19 20.7
003C4047 2019-02-13 05:29:46 20.9 19 20.7
003C4047 2019-02-13 04:58:44 20.9 19 20.6
003C4047 2019-02-13 04:27:41 20.9 19 20.8
003C4047 2019-02-13 03:56:37 21 19 20.8
003C4047 2019-02-13 03:25:32 21 19 20.8
003C4047 2019-02-13 02:54:25 21 19 20.7
003C4047 2019-02-13 02:23:20 21 18 20.7
003C4047 2019-02-13 01:52:15 21 18 20.7
003C4047 2019-02-13 01:21:11 21 18 20.6
003C4047 2019-02-13 00:50:07 21 18 20.6
003C4047 2019-02-13 00:19:01 21.1 18 20.6
003C4047 2019-02-12 23:47:58 21 19 20.4
003C4047 2019-02-12 23:16:55 21.1 19 20.4
003C4047 2019-02-12 22:45:52 21.1 18 20.4
003C4047 2019-02-12 22:14:46 21.1 18 20.4
003C4047 2019-02-12 21:43:40 21.2 19 20.4
003C4047 2019-02-12 21:12:36 21.3 21 20.3
003C4047 2019-02-12 20:41:31 21.3 21 20.1
003C4047 2019-02-12 20:10:26 21.4 21 20.2
003C4047 2019-02-12 19:39:21 21.4 21 21.5
003C4047 2019-02-12 19:08:16 21.3 20 21.5
003C4047 2019-02-12 18:37:12 21.2 20 21.5
003C4047 2019-02-12 18:06:07 21.4 19 22.5
003C4047 2019-02-12 18:04:55 21.2 19 22.5
003C4047 2019-02-12 17:33:49 21.2 19 21.5
003C4047 2019-02-12 17:02:46 21.3 19 21.4
003C4047 2019-02-12 16:31:42 21.4 18 21.4
003C4047 2019-02-12 16:00:38 21.5 19 21.1
003C4047 2019-02-12 15:29:33 21.5 19 20.9
003C4047 2019-02-12 14:58:30 21.5 19 20.9
003C4047 2019-02-12 14:27:25 21.4 19 20.9
003C4047 2019-02-12 13:56:22 21.3 19 20.9
003C4047 2019-02-12 13:25:17 21.3 18 20.8
003C4047 2019-02-12 12:54:13 21.4 18 20.9
003C4047 2019-02-12 12:23:09 21.4 18 20.8
003C4047 2019-02-12 11:52:05 21.4 19 20.8
003C4047 2019-02-12 11:21:03 21.4 19 20.7
003C4047 2019-02-12 10:49:58 21.3 20 20.7
003C4047 2019-02-12 10:18:54 21.2 20 20.5
003C4047 2019-02-12 09:47:50 21.2 21 20.4
003C4047 2019-02-12 09:16:46 21.1 23 20.4
003C4047 2019-02-12 08:45:41 21 23 20.4
003C4047 2019-02-12 08:14:37 20.9 23 20.4
003C4047 2019-02-12 07:43:31 20.9 23 20.4
003C4047 2019-02-12 07:12:27 20.9 26 18.5
003C4047 2019-02-12 06:41:20 20.9 26 18.3
003C4047 2019-02-12 06:10:14 20.9 26 18.5
003C4047 2019-02-12 05:39:07 21 26 14.9
003C4047 2019-02-12 05:08:00 21 26 14.8
003C4047 2019-02-12 04:36:52 21 27 14.6
003C4047 2019-02-12 04:05:46 21 27 14.8
003C4047 2019-02-12 03:34:39 21 27 14.9
003C4047 2019-02-12 03:03:34 21 27 15
003C4047 2019-02-12 02:32:28 21 27 15.2
003C4047 2019-02-12 02:01:25 21 27 15.2
003C4047 2019-02-12 01:30:18 21 27 15.2
003C4047 2019-02-12 00:59:13 21.1 27 15.4
003C4047 2019-02-12 00:28:08 21.1 27 15.4
003C4047 2019-02-11 23:57:03 21.1 27 15
003C4047 2019-02-11 23:25:57 21.2 27 15.1
003C4047 2019-02-11 22:54:52 21.2 27 15.1
003C4047 2019-02-11 22:23:46 21.3 27 14.9
003C4047 2019-02-11 21:52:39 21.3 27 15.1
003C4047 2019-02-11 21:21:33 21.4 27 15.1
003C4047 2019-02-11 20:50:26 21.5 27 15.1
003C4047 2019-02-11 20:19:20 21.6 27 15.3
003C4047 2019-02-11 19:48:14 21.7 27 15.7
003C4047 2019-02-11 19:17:08 21.8 27 16
003C4047 2019-02-11 18:46:02 21.9 27 15.9
003C4047 2019-02-11 18:14:55 22.1 26 16.3
003C4047 2019-02-11 17:43:49 22.4 28 17.5
003C4047 2019-02-11 17:12:42 22.4 27 13.7
003C4047 2019-02-11 16:41:33 22.3 30 0